CW2313 Weather Reports


Display with metric or nautical units.
time (UTC)temp
F
wind
direction
speed
MPH
gust
MPH
rain 1hr
in
rain 24hr
in
rain mn
in
humidity
%
barometer
mb
20260508030107 50 204 0.0 0.0 0.00 0.00 0.00 43 1017.8
20260508024618 51 204 0.0 0.0 0.00 0.00 0.00 43 1017.7
20260508023039 52 203 0.0 0.0 0.00 0.00 0.00 43 1017.6
20260508021536 53 203 0.0 0.0 0.00 0.00 0.00 42 1017.7
20260508020016 54 206 0.0 0.0 0.00 0.00 0.00 38 1017.7
20260508014522 54 214 0.0 0.0 0.00 0.00 0.00 37 1017.7
20260508013108 54 214 0.0 0.0 0.00 0.00 0.00 37 1017.7
20260508011603 55 199 0.0 0.0 0.00 0.00 0.00 34 1017.8
20260508010041 56 210 0.0 0.0 0.00 0.00 0.00 32 1017.9
20260508004540 57 212 0.0 0.0 0.00 0.00 0.00 33 1017.9
20260508003023 57 213 0.0 0.0 0.00 0.00 0.00 29 1018.0
20260508001539 58 214 0.0 0.0 0.00 0.00 0.00 35 1018.1
20260508000006 58 214 0.0 0.0 0.00 0.00 0.00 34 1018.0
20260507234504 59 233 0.0 0.0 0.00 0.00 0.00 33 1018.1
20260507233053 59 198 0.0 0.0 0.00 0.00 0.00 34 1018.0
20260507231555 59 210 0.0 0.0 0.00 0.00 0.00 37 1018.1
20260507230054 60 177 0.0 0.0 0.00 0.00 0.00 38 1018.1
20260507224552 59 157 0.0 0.0 0.00 0.00 0.00 40 1018.2
20260507223050 58 200 0.0 0.0 0.00 0.00 0.00 33 1018.4
20260507221547 58 223 0.0 0.0 0.00 0.00 0.00 39 1018.4
20260507220046 58 189 0.0 0.0 0.00 0.00 0.00 36 1018.6
20260507214548 57 298 0.0 0.0 0.00 0.00 0.00 38 1018.7
20260507213035 57 204 0.0 0.0 0.00 0.00 0.00 33 1018.8
20260507211542 57 218 0.0 0.0 0.00 0.00 0.00 38 1018.8
20260507210009 57 204 0.0 0.0 0.00 0.00 0.00 41 1018.8
20260507204508 56 177 0.0 1.0 0.00 0.00 0.00 46 1018.8
20260507203049 56 127 0.0 2.0 0.00 0.00 0.00 41 1018.9
20260507201549 55 153 0.0 0.0 0.00 0.00 0.00 48 1019.0
20260507200033 55 172 0.0 6.0 0.00 0.00 0.00 44 1019.0
20260507194525 55 207 0.0 0.0 0.00 0.00 0.00 42 1018.9
20260507193006 54 206 0.0 0.0 0.00 0.00 0.00 43 1018.9
20260507191504 54 189 0.0 0.0 0.00 0.00 0.00 42 1018.9
20260507190043 52 237 0.0 0.0 0.00 0.00 0.00 45 1019.0
20260507184542 52 172 0.0 2.0 0.00 0.00 0.00 44 1019.0
20260507183023 51 212 0.0 3.0 0.00 0.00 0.00 46 1019.1
20260507181521 51 172 0.0 0.0 0.00 0.00 0.00 53 1019.1
20260507180100 50 139 0.0 0.0 0.00 0.00 0.00 57 1019.0
20260507174602 49 202 0.0 6.0 0.00 0.00 0.00 57 1018.9
20260507173055 49 265 0.0 0.0 0.00 0.00 0.00 62 1019.0
20260507171538 48 225 0.0 5.0 0.00 0.00 0.00 62 1018.9
20260507170032 48 201 0.0 1.0 0.00 0.00 0.00 66 1018.8
20260507164517 47 217 0.0 3.0 0.00 0.00 0.00 67 1018.7
20260507163058 46 206 0.0 9.0 0.00 0.00 0.00 70 1018.5
20260507161557 46 269 0.0 9.0 0.00 0.00 0.00 73 1015.1
20260507160032 45 181 0.0 11.0 0.00 0.00 0.00 74 1019.2
20260507154527 45 234 0.0 12.0 0.00 0.00 0.00 75 1018.3
20260507153006 45 227 0.0 0.0 0.00 0.00 0.00 76 1018.3
20260507151501 45 198 0.0 7.0 0.00 0.00 0.00 77 1018.2
20260507150041 44 204 0.0 8.0 0.00 0.00 0.00 78 1018.1
20260507144543 43 223 0.0 1.0 0.00 0.00 0.00 78 1018.0
20260507143022 43 216 0.0 12.0 0.00 0.00 0.00 78 1017.9
20260507141525 43 225 0.0 13.0 0.00 0.00 0.00 78 1017.8
20260507140007 43 207 0.0 7.0 0.00 0.00 0.00 78 1017.8
20260507134503 43 223 0.0 15.0 0.00 0.00 0.00 77 1017.7
20260507133048 43 216 0.0 12.0 0.00 0.00 0.00 78 1017.5
20260507131549 43 214 1.0 10.0 0.00 0.00 0.00 79 1017.5
20260507130026 42 227 0.0 1.0 0.00 0.00 0.00 80 1017.4
20260507124524 41 191 0.0 1.0 0.00 0.00 0.00 81 1017.6
20260507123007 41 241 0.0 0.0 0.00 0.00 0.00 81 1017.7
20260507121505 41 226 0.0 0.0 0.00 0.00 0.00 82 1017.7
20260507120046 40 198 0.0 0.0 0.00 0.00 0.00 84 1017.8
20260507114545 40 229 0.0 0.0 0.00 0.00 0.00 81 1017.9
20260507113027 41 229 0.0 0.0 0.00 0.00 0.00 80 1017.9
20260507111523 41 229 0.0 0.0 0.00 0.00 0.00 79 1017.9
20260507110004 41 223 0.0 0.0 0.00 0.00 0.00 78 1018.0
20260507104502 42 236 0.0 0.0 0.00 0.00 0.00 77 1018.1
20260507103111 42 215 0.0 0.0 0.00 0.00 0.00 77 1018.0
20260507101541 42 214 0.0 0.0 0.00 0.00 0.00 75 1018.3
20260507100029 43 206 0.0 0.0 0.00 0.00 0.00 74 1018.4
20260507094526 43 231 0.0 0.0 0.00 0.00 0.00 73 1018.3
20260507093023 44 233 0.0 0.0 0.00 0.00 0.00 72 1018.4
20260507091534 44 221 0.0 0.0 0.00 0.00 0.00 72 1018.2
20260507090019 45 213 0.0 0.0 0.00 0.00 0.00 71 1018.3
20260507084535 45 212 0.0 1.0 0.00 0.00 0.00 70 1018.2
20260507083016 45 221 0.0 0.0 0.00 0.00 0.00 70 1018.2
20260507081515 45 210 0.0 1.0 0.00 0.00 0.00 69 1018.3
20260507080057 46 191 0.0 0.0 0.00 0.00 0.00 68 1018.3
20260507074602 46 204 0.0 0.0 0.00 0.00 0.00 68 1018.4
20260507073041 46 194 0.0 0.0 0.00 0.00 0.00 68 1018.5
20260507071535 47 216 0.0 5.0 0.00 0.00 0.00 68 1018.5
20260507070018 47 221 0.0 0.0 0.00 0.00 0.00 68 1018.5
20260507064517 47 210 0.0 0.0 0.00 0.00 0.00 66 1018.6
20260507063116 47 206 0.0 0.0 0.00 0.00 0.00 66 1018.7
20260507061559 47 202 0.0 0.0 0.00 0.00 0.00 67 1018.7
20260507054602 49 191 0.0 0.0 0.00 0.00 0.00 65 1018.8
20260507053043 49 181 0.0 1.0 0.00 0.00 0.00 64 1018.8
20260507051522 50 183 0.0 5.0 0.00 0.00 0.00 63 1018.6
20260507050038 50 214 0.0 0.0 0.00 0.00 0.00 63 1018.8
20260507044505 51 197 0.0 0.0 0.00 0.00 0.00 62 1018.9
20260507043005 51 201 0.0 0.0 0.00 0.00 0.00 60 1018.9
20260507041559 52 212 0.0 11.0 0.00 0.00 0.00 59 1018.9
20260507040046 52 167 0.0 14.0 0.00 0.00 0.00 58 1019.0
20260507034530 53 191 0.0 5.0 0.00 0.00 0.00 58 1018.9
20260507033029 53 248 0.0 5.0 0.00 0.00 0.00 58 1018.7
20260507031511 54 172 1.0 11.0 0.00 0.00 0.00 57 1018.2